FW8996 Weather Reports


time (UTC)temp
F
wind
direction
speed
knots
gust
knots
rain 1hr
in
rain 24hr
in
rain mn
in
humidity
%
barometer
mb
20260505230608 73 113 0.0 0.0 0.00 0.00 0.00 91 1010.8
20260505230100 73 90 0.0 0.0 0.00 0.00 0.00 91 1010.7
20260505225550 73 90 0.0 0.0 0.00 0.00 0.00 91 1010.8
20260505225038 73 113 0.0 0.0 0.00 0.00 0.00 91 1010.6
20260505222447 74 113 0.0 0.0 0.00 0.00 0.00 90 1010.3
20260505221936 74 113 0.0 0.0 0.00 0.00 0.00 90 1010.5
20260505221433 74 113 0.0 0.0 0.00 0.00 0.00 90 1010.4
20260505220922 74 113 0.0 0.0 0.00 0.00 0.00 90 1010.4
20260505220408 74 113 0.0 0.0 0.00 0.00 0.00 90 1010.3
20260505215902 74 113 0.0 0.0 0.00 0.00 0.00 89 1010.5
20260505215347 75 113 0.0 0.0 0.00 0.00 0.00 89 1010.3
20260505214837 75 113 0.0 0.0 0.00 0.00 0.00 89 1010.4
20260505214327 75 113 0.0 0.0 0.00 0.00 0.00 89 1010.5
20260505213819 75 113 0.0 0.0 0.00 0.00 0.00 88 1010.5
20260505213309 75 90 0.0 0.0 0.00 0.00 0.00 88 1010.4
20260505212757 75 45 0.0 0.0 0.00 0.00 0.00 88 1010.3
20260505211742 76 113 0.0 0.0 0.00 0.00 0.00 87 1010.0
20260505211232 76 158 0.0 0.0 0.00 0.00 0.00 87 1010.3
20260505210716 76 113 0.0 0.0 0.00 0.00 0.00 87 1010.3
20260505210211 76 113 0.0 0.0 0.00 0.00 0.00 86 1010.1
20260505205656 76 113 0.0 0.0 0.00 0.00 0.00 86 1010.0
20260505204643 76 90 0.0 0.0 0.00 0.00 0.00 85 1009.9
20260505204130 77 135 0.0 0.0 0.00 0.00 0.00 85 1009.9
20260505203620 77 135 0.0 0.0 0.00 0.00 0.00 85 1010.1
20260505203111 77 135 0.0 0.0 0.00 0.00 0.00 85 1010.2
20260505202555 77 158 0.0 0.0 0.00 0.00 0.00 84 1010.4
20260505202048 77 158 0.0 0.0 0.00 0.00 0.00 84 1010.2
20260505201028 77 113 0.0 0.0 0.00 0.00 0.00 83 1010.2
20260505200519 77 135 0.0 0.0 0.00 0.00 0.00 83 1010.2
20260505200007 78 113 0.0 0.0 0.00 0.00 0.00 83 1010.2
20260505195456 78 135 0.0 0.0 0.00 0.00 0.00 83 1010.3
20260505194437 78 113 0.0 0.0 0.00 0.00 0.00 83 1010.1
20260505193927 78 90 0.0 0.0 0.00 0.00 0.00 82 1010.2
20260505193419 78 135 0.0 0.0 0.00 0.00 0.00 82 1010.3
20260505191846 77 113 0.0 0.0 0.00 0.00 0.00 83 1010.1
20260505190827 77 135 0.0 0.0 0.00 0.00 0.00 83 1010.4
20260505190313 77 135 0.0 0.0 0.00 0.00 0.00 83 1010.7
20260505185806 78 158 0.0 0.0 0.00 0.00 0.00 82 1010.8
20260505184745 78 90 0.0 0.0 0.00 0.00 0.00 82 1010.8
20260505183723 77 90 0.0 0.0 0.00 0.00 0.00 83 1010.7
20260505183218 77 158 0.0 0.0 0.00 0.00 0.00 83 1010.6
20260505182705 78 135 0.0 0.0 0.00 0.00 0.00 82 1010.6
20260505182152 77 135 0.0 0.0 0.00 0.00 0.00 83 1010.7
20260505181642 77 45 0.0 0.0 0.00 0.00 0.00 83 1010.9
20260505181137 77 113 0.0 0.0 0.00 0.00 0.00 83 1010.7
20260505180622 77 68 0.0 0.0 0.00 0.00 0.00 83 1010.8
20260505180113 77 113 0.0 0.0 0.00 0.00 0.00 83 1010.6
20260505175605 76 90 0.0 0.0 0.00 0.00 0.00 84 1010.9
20260505175051 76 45 0.0 0.0 0.00 0.00 0.00 85 1010.8
20260505174542 76 45 0.0 0.0 0.00 0.00 0.00 85 1010.9
20260505173015 76 68 0.0 1.7 0.00 0.00 0.00 85 1010.7
20260505172507 76 90 0.0 1.7 0.00 0.00 0.00 85 1011.2
20260505171956 76 45 0.0 1.7 0.00 0.00 0.00 85 1011.2
20260505171446 75 45 0.0 1.7 0.00 0.00 0.00 84 1011.2
20260505170933 76 68 0.0 0.0 0.00 0.00 0.00 84 1010.9
20260505170423 75 90 0.0 0.0 0.00 0.00 0.00 85 1011.2
20260505165911 75 68 0.0 0.0 0.00 0.00 0.00 85 1011.4
20260505165400 75 23 0.0 0.0 0.00 0.00 0.00 85 1011.3
20260505164851 75 68 0.0 1.7 0.00 0.00 0.00 85 1011.3
20260505163830 75 90 0.0 1.7 0.00 0.00 0.00 85 1011.5
20260505162810 75 23 0.0 0.0 0.00 0.00 0.00 84 1011.5
20260505162306 75 68 0.0 1.7 0.00 0.00 0.00 86 1011.7
20260505161752 74 45 0.0 1.7 0.00 0.00 0.00 86 1011.7
20260505161242 74 68 0.0 1.7 0.00 0.00 0.00 86 1011.9
20260505160735 74 68 0.0 1.7 0.00 0.00 0.00 86 1011.9
20260505160221 74 45 0.0 1.7 0.00 0.00 0.00 86 1012.1
20260505152613 73 45 0.0 3.5 0.00 0.00 0.00 87 1012.1
20260505152105 73 315 0.0 3.5 0.00 0.00 0.00 87 1012.1
20260505151549 73 45 0.0 3.5 0.00 0.00 0.00 87 1012.0
20260505151044 73 45 0.0 3.5 0.00 0.00 0.00 87 1012.0
20260505150531 73 45 0.0 7.0 0.00 0.00 0.00 87 1012.3
20260505124047 68 23 0.0 0.0 0.00 0.00 0.00 92 1012.9
20260505123533 67 45 0.0 0.0 0.00 0.00 0.00 92 1012.8
20260505123028 67 68 0.0 0.0 0.00 0.00 0.00 93 1012.8
20260505122516 67 68 0.0 0.0 0.00 0.00 0.00 93 1012.5
20260505121501 66 68 0.0 0.0 0.00 0.00 0.00 93 1012.7
20260505113806 65 68 0.0 0.0 0.00 0.00 0.00 93 1012.4
20260505113252 65 45 0.0 0.0 0.00 0.00 0.00 93 1012.1
20260505112748 65 68 0.0 0.0 0.00 0.00 0.00 93 1012.2
20260505112232 64 90 0.0 0.0 0.00 0.00 0.00 93 1012.2
20260505111727 65 68 0.0 0.0 0.00 0.00 0.00 93 1012.1
20260505111217 65 45 0.0 0.0 0.00 0.00 0.00 93 1011.9
20260505110707 65 113 0.0 0.0 0.00 0.00 0.00 93 1011.7
20260505102031 65 68 0.0 0.0 0.00 0.00 0.00 93 1011.7
20260505101533 64 113 0.0 0.0 0.00 0.00 0.00 93 1011.4
20260505100506 64 90 0.0 0.0 0.00 0.00 0.00 93 1011.3
20260505095953 64 68 0.0 0.0 0.00 0.00 0.00 93 1011.3
20260505095446 64 68 0.0 0.0 0.00 0.00 0.00 93 1011.3
20260505094930 64 45 0.0 0.0 0.00 0.00 0.00 93 1011.3
20260505093910 64 68 0.0 0.0 0.00 0.00 0.00 93 1011.1
20260505093405 64 45 0.0 0.0 0.00 0.00 0.00 92 1011.1
20260505092850 64 45 0.0 0.0 0.00 0.00 0.00 92 1010.9
20260505092342 64 68 0.0 0.0 0.00 0.00 0.00 92 1010.7
20260505091834 64 45 0.0 0.0 0.00 0.00 0.00 92 1010.9
20260505091319 64 68 0.0 0.0 0.00 0.00 0.00 92 1011.1
20260505090814 64 45 0.0 0.0 0.00 0.00 0.00 92 1011.2
20260505090302 64 45 0.0 0.0 0.00 0.00 0.00 92 1011.0
20260505085750 64 45 0.0 0.0 0.00 0.00 0.00 92 1010.8
20260505084733 64 68 0.0 0.0 0.00 0.00 0.00 92 1011.0
20260505084221 64 45 0.0 0.0 0.00 0.00 0.00 92 1010.8
20260505083714 64 23 0.0 0.0 0.00 0.00 0.00 92 1010.7
20260505083204 64 45 0.0 0.0 0.00 0.00 0.00 92 1010.8
20260505082653 64 23 0.0 0.0 0.00 0.00 0.00 92 1010.7
20260505082140 64 45 0.0 0.0 0.00 0.00 0.00 92 1010.8
20260505081633 64 23 0.0 0.0 0.00 0.00 0.00 92 1010.6
20260505080103 64 68 0.0 0.0 0.00 0.00 0.00 92 1010.9
20260505075550 64 23 0.0 0.0 0.00 0.00 0.00 92 1010.8
20260505075038 64 45 0.0 0.0 0.00 0.00 0.00 92 1011.0
20260505074532 64 68 0.0 0.0 0.00 0.00 0.00 92 1010.8
20260505074020 64 68 0.0 0.0 0.00 0.00 0.00 92 1010.7
20260505073510 64 68 0.0 0.0 0.00 0.00 0.00 91 1010.6
20260505073000 64 68 0.0 0.0 0.00 0.00 0.00 91 1010.6
20260505072451 64 68 0.0 0.0 0.00 0.00 0.00 91 1010.6
20260505071943 64 45 0.0 0.0 0.00 0.00 0.00 91 1010.7
20260505071432 64 68 0.0 0.0 0.00 0.00 0.00 91 1010.8
20260505070923 64 45 0.0 0.0 0.00 0.00 0.00 91 1010.8
20260505065859 64 45 0.0 0.0 0.00 0.00 0.00 91 1010.9
20260505065351 64 45 0.0 0.0 0.00 0.00 0.00 91 1010.9
20260505064838 64 23 0.0 0.0 0.00 0.00 0.00 91 1011.0
20260505064338 63 23 0.0 0.0 0.00 0.00 0.00 91 1010.9
20260505063818 64 0 0.0 0.0 0.00 0.00 0.00 90 1011.2
20260505063306 64 23 0.0 0.0 0.00 0.00 0.00 90 1011.0
20260505062900 64 23 0.0 0.0 0.00 0.00 0.00 90 1011.1
20260505061330 63 135 0.0 0.0 0.00 0.00 0.00 90 1010.8
20260505060817 63 68 0.0 0.0 0.00 0.00 0.00 90 1010.9
20260505060310 63 45 0.0 0.0 0.00 0.00 0.00 90 1010.9
20260505055800 63 135 0.0 0.0 0.00 0.00 0.00 89 1010.9
20260505054739 63 68 0.0 0.0 0.00 0.00 0.00 89 1011.0
20260505054230 64 23 0.0 0.0 0.00 0.00 0.00 88 1011.1
20260505053717 64 23 0.0 0.0 0.00 0.00 0.00 88 1011.1
20260505053213 64 23 0.0 0.0 0.00 0.00 0.00 89 1011.0
20260505052700 63 23 0.0 0.0 0.00 0.00 0.00 89 1011.1
20260505052150 63 45 0.0 0.0 0.00 0.00 0.00 89 1011.0
20260505051639 63 45 0.0 0.0 0.00 0.00 0.00 88 1011.1
20260505051130 63 68 0.0 0.0 0.00 0.00 0.00 88 1011.0
20260505041438 63 45 0.0 0.0 0.00 0.00 0.00 84 1011.6
20260505040928 62 68 0.0 0.0 0.00 0.00 0.00 83 1011.5
20260505040417 62 68 0.0 0.0 0.00 0.00 0.00 84 1011.4
20260505035908 61 90 0.0 0.0 0.00 0.00 0.00 85 1011.5
20260505035357 60 225 0.0 0.0 0.00 0.00 0.00 86 1011.3
20260505033826 60 248 0.0 0.0 0.00 0.00 0.00 85 1011.2
20260505033317 60 135 0.0 0.0 0.00 0.00 0.00 85 1011.0
20260505032804 60 135 0.0 0.0 0.00 0.00 0.00 85 1011.1
20260505032256 60 113 0.0 0.0 0.00 0.00 0.00 85 1011.3
20260505031746 60 135 0.0 0.0 0.00 0.00 0.00 85 1011.0
20260505031236 60 90 0.0 0.0 0.00 0.00 0.00 85 1011.2
20260505030724 60 90 0.0 0.0 0.00 0.00 0.00 85 1011.1
20260505030216 59 90 0.0 0.0 0.00 0.00 0.00 86 1011.3
20260505025707 59 135 0.0 0.0 0.00 0.00 0.00 86 1011.3
20260505025156 59 135 0.0 0.0 0.00 0.00 0.00 86 1011.0
20260505024646 58 158 0.0 0.0 0.00 0.00 0.00 85 1011.1
20260505024136 59 135 0.0 0.0 0.00 0.00 0.00 85 1011.1
20260505023625 58 135 0.0 0.0 0.00 0.00 0.00 85 1010.8
20260505022606 58 135 0.0 0.0 0.00 0.00 0.00 85 1010.9
20260505022057 58 158 0.0 0.0 0.00 0.00 0.00 85 1010.8
20260505021545 58 135 0.0 0.0 0.00 0.00 0.00 84 1010.8
20260505021032 58 158 0.0 0.0 0.00 0.00 0.00 84 1010.7
20260505020525 59 135 0.0 0.0 0.00 0.00 0.00 84 1010.6
20260505020018 58 113 0.0 0.0 0.00 0.00 0.00 84 1010.8
20260505014958 59 113 0.0 0.0 0.00 0.00 0.00 81 1010.7
20260505014442 60 90 0.0 0.0 0.00 0.00 0.00 81 1010.7
20260505013424 60 90 0.0 0.0 0.00 0.00 0.00 81 1010.8
20260505012914 60 68 0.0 0.0 0.00 0.00 0.00 81 1010.6
20260505012404 60 68 0.0 0.0 0.00 0.00 0.00 81 1010.7
20260505011344 60 90 0.0 0.0 0.00 0.00 0.00 81 1010.4
20260505010837 60 68 0.0 0.0 0.00 0.00 0.00 80 1010.6
20260505010326 60 90 0.0 0.0 0.00 0.00 0.00 80 1010.6
20260505005815 60 90 0.0 0.0 0.00 0.00 0.00 80 1010.4
20260505005305 60 135 0.0 0.0 0.00 0.00 0.00 80 1010.7
20260505004753 60 113 0.0 0.0 0.00 0.00 0.00 80 1010.5
20260505003733 60 90 0.0 0.0 0.00 0.00 0.00 80 1010.3
20260505003222 60 90 0.0 0.0 0.00 0.00 0.00 80 1010.4
20260505002714 60 90 0.0 0.0 0.00 0.00 0.00 81 1010.4
20260505002200 59 113 0.0 0.0 0.00 0.00 0.00 80 1010.5
20260505001143 60 90 0.0 0.0 0.00 0.00 0.00 79 1010.3
20260505000632 59 68 0.0 0.0 0.00 0.00 0.00 79 1010.5
20260505000120 60 90 0.0 0.0 0.00 0.00 0.00 77 1010.3
20260504235613 60 90 0.0 0.0 0.00 0.00 0.00 77 1010.4
20260504235102 60 68 0.0 0.0 0.00 0.00 0.00 77 1010.4
20260504234553 60 113 0.0 0.0 0.00 0.00 0.00 77 1010.0
20260504234037 59 135 0.0 0.0 0.00 0.00 0.00 79 1010.1
20260504233532 59 135 0.0 0.0 0.00 0.00 0.00 78 1009.9
20260504233022 60 113 0.0 0.0 0.00 0.00 0.00 76 1009.9
20260504232002 61 90 0.0 0.0 0.00 0.00 0.00 74 1010.0
20260504231449 62 113 0.0 0.0 0.00 0.00 0.00 73 1009.8
20260504230941 62 90 0.0 0.0 0.00 0.00 0.00 72 1010.0